Time,TemperatureF,DewpointF,PressureIn,WindDirection,WindDirectionDegrees,WindSpeedMPH,WindSpeedGustMPH,Humidity,HourlyPrecipIn,Conditions,Clouds,dailyrainin,SoftwareType,DateUTC
2013-01-24 00:03:00,16.0,13.0,-100.00,WNW,300,2.0,9.0,86,0.00,,,-99.99,,2013-01-24 05:03:00,
2013-01-24 00:12:00,16.0,13.0,-100.00,South,180,1.0,3.0,87,0.00,,,-99.99,,2013-01-24 05:12:00,
2013-01-24 00:22:00,16.0,13.0,-100.00,SW,225,0.0,4.0,88,0.00,,,-99.99,,2013-01-24 05:22:00,
2013-01-24 00:33:00,16.0,13.0,-100.00,SW,220,1.0,4.0,88,0.55,,,-99.99,,2013-01-24 05:33:00,
2013-01-24 00:43:00,17.0,14.0,-100.00,West,265,2.0,5.0,88,0.55,,,-99.99,,2013-01-24 05:43:00,
2013-01-24 00:52:00,17.0,14.0,-100.00,West,265,2.0,5.0,88,0.55,,,-99.99,,2013-01-24 05:52:00,
2013-01-24 01:03:00,17.0,14.0,-100.00,SW,230,2.0,7.0,88,0.55,,,-99.99,,2013-01-24 06:03:00,
2013-01-24 01:12:00,17.0,14.0,-100.00,West,280,2.0,6.0,88,0.55,,,-99.99,,2013-01-24 06:12:00,
2013-01-24 01:22:00,17.0,14.0,-100.00,West,280,2.0,6.0,88,0.55,,,-99.99,,2013-01-24 06:22:00,
2013-01-24 01:32:00,17.0,14.0,-100.00,WSW,240,1.0,6.0,88,0.55,,,-99.99,,2013-01-24 06:32:00,
2013-01-24 01:42:00,17.0,14.0,-100.00,WSW,240,1.0,6.0,88,0.55,,,-99.99,,2013-01-24 06:42:00,
2013-01-24 01:52:00,17.0,14.0,-100.00,West,270,3.0,6.0,89,0.00,,,-99.99,,2013-01-24 06:52:00,
2013-01-24 02:03:00,17.0,14.0,-100.00,West,270,3.0,5.0,89,0.55,,,-99.99,,2013-01-24 07:03:00,
2013-01-24 02:12:00,17.0,14.0,-100.00,West,270,3.0,5.0,89,0.55,,,-99.99,,2013-01-24 07:12:00,
2013-01-24 02:23:00,17.0,14.0,-100.00,West,275,3.0,7.0,89,0.00,,,-99.99,,2013-01-24 07:23:00,
2013-01-24 02:33:00,17.0,14.0,-100.00,West,275,4.0,8.0,89,0.00,,,-99.99,,2013-01-24 07:33:00,
2013-01-24 02:43:00,17.0,14.0,-100.00,West,280,1.0,6.0,89,0.00,,,-99.99,,2013-01-24 07:43:00,
2013-01-24 02:53:00,17.0,14.0,-100.00,West,275,4.0,6.0,89,0.00,,,-99.99,,2013-01-24 07:53:00,
2013-01-24 03:02:00,17.0,14.0,-100.00,West,270,4.0,6.0,89,0.00,,,-99.99,,2013-01-24 08:02:00,
2013-01-24 03:12:00,17.0,14.0,-100.00,West,280,2.0,8.0,89,0.00,,,-99.99,,2013-01-24 08:12:00,
2013-01-24 03:23:00,17.0,14.0,-100.00,West,270,2.0,8.0,88,0.00,,,-99.99,,2013-01-24 08:23:00,
2013-01-24 03:33:00,17.0,14.0,-100.00,West,270,2.0,8.0,88,0.00,,,-99.99,,2013-01-24 08:33:00,
2013-01-24 03:43:00,17.0,14.0,-100.00,West,270,6.0,7.0,87,0.00,,,-99.99,,2013-01-24 08:43:00,
2013-01-24 03:52:00,17.0,14.0,-100.00,WNW,295,2.0,6.0,87,0.55,,,-99.99,,2013-01-24 08:52:00,
2013-01-24 04:03:00,17.0,14.0,-100.00,West,270,2.0,6.0,88,0.55,,,-99.99,,2013-01-24 09:03:00,
2013-01-24 04:13:00,17.0,14.0,-100.00,West,280,2.0,7.0,88,0.00,,,-99.99,,2013-01-24 09:13:00,
2013-01-24 04:23:00,17.0,14.0,-100.00,WNW,285,2.0,6.0,88,0.00,,,-99.99,,2013-01-24 09:23:00,
2013-01-24 04:33:00,17.0,14.0,-100.00,WNW,285,2.0,6.0,88,0.00,,,-99.99,,2013-01-24 09:33:00,
2013-01-24 04:43:00,16.0,13.0,-100.00,WNW,285,1.0,7.0,88,0.00,,,-99.99,,2013-01-24 09:43:00,
2013-01-24 04:52:00,16.0,13.0,-100.00,WNW,285,1.0,7.0,88,0.00,,,-99.99,,2013-01-24 09:52:00,
2013-01-24 05:03:00,16.0,13.0,-100.00,NW,325,2.0,6.0,87,0.55,,,-99.99,,2013-01-24 10:03:00,
2013-01-24 05:12:00,16.0,13.0,-100.00,NNW,330,2.0,7.0,86,0.00,,,-99.99,,2013-01-24 10:12:00,
2013-01-24 05:23:00,16.0,13.0,-100.00,NW,315,3.0,7.0,85,0.00,,,-99.99,,2013-01-24 10:23:00,
2013-01-24 05:33:00,16.0,13.0,-100.00,NW,315,3.0,7.0,85,0.00,,,-99.99,,2013-01-24 10:33:00,
2013-01-24 05:43:00,16.0,12.0,-100.00,NW,325,4.0,9.0,83,0.00,,,-99.99,,2013-01-24 10:43:00,
2013-01-24 05:52:00,16.0,11.0,-100.00,NNW,330,4.0,9.0,79,0.00,,,-99.99,,2013-01-24 10:52:00,
2013-01-24 06:03:00,16.0,10.0,-100.00,NW,325,6.0,12.0,77,0.00,,,-99.99,,2013-01-24 11:03:00,
2013-01-24 06:12:00,15.0,9.0,-100.00,NNW,335,4.0,12.0,75,0.00,,,-99.99,,2013-01-24 11:12:00,
2013-01-24 06:23:00,15.0,9.0,-100.00,NNW,335,4.0,12.0,75,0.00,,,-99.99,,2013-01-24 11:23:00,
2013-01-24 06:33:00,15.0,9.0,-100.00,NNW,330,6.0,9.0,76,0.00,,,-99.99,,2013-01-24 11:33:00,
2013-01-24 06:43:00,15.0,8.0,-100.00,NNW,330,6.0,13.0,75,0.00,,,-99.99,,2013-01-24 11:43:00,
2013-01-24 06:53:00,15.0,8.0,-100.00,NW,325,4.0,11.0,74,0.00,,,-99.99,,2013-01-24 11:53:00,
2013-01-24 07:03:00,15.0,8.0,-100.00,NW,325,4.0,11.0,74,0.00,,,-99.99,,2013-01-24 12:03:00,
2013-01-24 07:12:00,14.0,7.0,-100.00,NW,325,4.0,11.0,73,0.00,,,-99.99,,2013-01-24 12:12:00,
2013-01-24 07:23:00,14.0,7.0,-100.00,NNW,340,6.0,9.0,74,0.00,,,-99.99,,2013-01-24 12:23:00,
2013-01-24 07:33:00,14.0,7.0,-100.00,NNW,340,4.0,10.0,74,0.00,,,-99.99,,2013-01-24 12:33:00,
2013-01-24 07:43:00,14.0,7.0,-100.00,NNW,340,4.0,12.0,74,0.00,,,-99.99,,2013-01-24 12:43:00,
2013-01-24 07:53:00,13.0,6.0,-100.00,North,350,6.0,12.0,73,0.00,,,-99.99,,2013-01-24 12:53:00,
2013-01-24 08:03:00,13.0,6.0,-100.00,North,355,6.0,12.0,72,0.00,,,-99.99,,2013-01-24 13:03:00,
2013-01-24 08:13:00,13.0,6.0,-100.00,NW,325,4.0,7.0,72,0.00,,,-99.99,,2013-01-24 13:13:00,
2013-01-24 08:23:00,13.0,6.0,-100.00,NNW,335,4.0,7.0,72,0.00,,,-99.99,,2013-01-24 13:23:00,
2013-01-24 08:33:00,13.0,5.0,-100.00,NNW,340,4.0,8.0,71,0.00,,,-99.99,,2013-01-24 13:33:00,
2013-01-24 08:43:00,13.0,5.0,-100.00,NNW,340,3.0,6.0,70,1.69,,,-99.99,,2013-01-24 13:43:00,
2013-01-24 08:53:00,13.0,5.0,-100.00,NW,320,4.0,9.0,70,1.10,,,-99.99,,2013-01-24 13:53:00,
2013-01-24 09:03:00,14.0,5.0,-100.00,NW,305,2.0,8.0,68,0.00,,,-99.99,,2013-01-24 14:03:00,
2013-01-24 09:12:00,14.0,5.0,-100.00,NW,305,2.0,8.0,68,0.00,,,-99.99,,2013-01-24 14:12:00,
2013-01-24 09:23:00,14.0,5.0,-100.00,NW,310,4.0,12.0,66,0.55,,,-99.99,,2013-01-24 14:23:00,
2013-01-24 09:33:00,14.0,5.0,-100.00,North,355,4.0,10.0,64,0.00,,,-99.99,,2013-01-24 14:33:00,
2013-01-24 09:43:00,14.0,4.0,-100.00,North,355,6.0,10.0,63,0.00,,,-99.99,,2013-01-24 14:43:00,
2013-01-24 09:54:00,15.0,4.0,-100.00,North,5,4.0,11.0,63,1.10,,,-99.99,,2013-01-24 14:54:00,
2013-01-24 10:04:00,15.0,4.0,-100.00,North,0,4.0,12.0,61,0.00,,,-99.99,,2013-01-24 15:04:00,
2013-01-24 10:12:00,15.0,4.0,-100.00,NNE,25,6.0,12.0,59,0.00,,,-99.99,,2013-01-24 15:12:00,
2013-01-24 10:23:00,16.0,4.0,-100.00,NNE,15,6.0,8.0,60,1.10,,,-99.99,,2013-01-24 15:23:00,
2013-01-24 10:33:00,16.0,5.0,-100.00,NNE,20,4.0,9.0,60,0.00,,,-99.99,,2013-01-24 15:33:00,
2013-01-24 10:43:00,16.0,4.0,-100.00,North,10,4.0,10.0,59,2.83,,,-99.99,,2013-01-24 15:43:00,
2013-01-24 10:53:00,17.0,4.0,-100.00,NNE,20,5.0,11.0,58,2.24,,,-99.99,,2013-01-24 15:53:00,
2013-01-24 11:04:00,17.0,5.0,-100.00,North,350,6.0,12.0,57,3.94,,,-99.99,,2013-01-24 16:04:00,
2013-01-24 11:12:00,18.0,5.0,-100.00,North,0,5.0,9.0,56,3.94,,,-99.99,,2013-01-24 16:12:00,
2013-01-24 11:23:00,18.0,5.0,-100.00,NNE,30,3.0,9.0,55,1.10,,,-99.99,,2013-01-24 16:23:00,
2013-01-24 11:33:00,18.0,4.0,-100.00,NNW,335,5.0,13.0,55,2.83,,,-99.99,,2013-01-24 16:33:00,
2013-01-24 11:42:00,18.0,4.0,-100.00,NNW,335,5.0,13.0,55,2.83,,,-99.99,,2013-01-24 16:42:00,
2013-01-24 12:03:00,19.0,6.0,-100.00,North,0,4.0,8.0,55,0.55,,,-99.99,,2013-01-24 17:03:00,
2013-01-24 12:12:00,19.0,5.0,-100.00,North,350,2.0,9.0,54,1.10,,,-99.99,,2013-01-24 17:12:00,
2013-01-24 12:22:00,19.0,6.0,-100.00,West,270,4.0,9.0,55,2.24,,,-99.99,,2013-01-24 17:22:00,
2013-01-24 12:32:00,19.0,6.0,-100.00,NW,310,3.0,11.0,54,2.83,,,-99.99,,2013-01-24 17:32:00,
2013-01-24 12:42:00,20.0,7.0,-100.00,East,80,2.0,9.0,55,2.24,,,-99.99,,2013-01-24 17:42:00,
2013-01-24 12:52:00,20.0,7.0,-100.00,NNW,340,4.0,9.0,54,1.10,,,-99.99,,2013-01-24 17:52:00,
2013-01-24 13:03:00,20.0,6.0,-100.00,WNW,300,3.0,7.0,53,0.55,,,-99.99,,2013-01-24 18:03:00,
2013-01-24 13:12:00,21.0,7.0,-100.00,NNW,335,4.0,9.0,54,0.00,,,-99.99,,2013-01-24 18:12:00,
2013-01-24 13:22:00,21.0,7.0,-100.00,WNW,295,2.0,8.0,53,0.00,,,-99.99,,2013-01-24 18:22:00,
2013-01-24 13:33:00,20.0,6.0,-100.00,West,260,3.0,10.0,53,0.00,,,-99.99,,2013-01-24 18:33:00,
2013-01-24 13:42:00,22.0,7.0,-100.00,NNE,25,4.0,10.0,53,3.39,,,-99.99,,2013-01-24 18:42:00,
2013-01-24 13:53:00,21.0,7.0,-100.00,NNW,340,3.0,8.0,54,0.00,,,-99.99,,2013-01-24 18:53:00,
2013-01-24 14:02:00,20.0,7.0,-100.00,West,270,3.0,8.0,55,0.00,,,-99.99,,2013-01-24 19:02:00,
2013-01-24 14:12:00,19.0,6.0,-100.00,NW,305,3.0,9.0,55,0.00,,,-99.99,,2013-01-24 19:12:00,
2013-01-24 14:22:00,20.0,6.0,-100.00,North,0,3.0,9.0,54,0.00,,,-99.99,,2013-01-24 19:22:00,
2013-01-24 14:33:00,20.0,7.0,-100.00,NNE,15,4.0,7.0,55,0.00,,,-99.99,,2013-01-24 19:33:00,
2013-01-24 14:42:00,21.0,7.0,-100.00,North,355,2.0,6.0,54,0.00,,,-99.99,,2013-01-24 19:42:00,
2013-01-24 14:52:00,21.0,6.0,-100.00,NW,310,2.0,6.0,52,0.00,,,-99.99,,2013-01-24 19:52:00,
2013-01-24 15:02:00,21.0,6.0,-100.00,NW,310,2.0,6.0,52,0.00,,,-99.99,,2013-01-24 20:02:00,
2013-01-24 15:11:00,21.0,6.0,-100.00,NW,310,2.0,6.0,52,0.00,,,-99.99,,2013-01-24 20:11:00,
2013-01-24 15:22:00,21.0,7.0,-100.00,WNW,285,4.0,7.0,55,0.00,,,-99.99,,2013-01-24 20:22:00,
2013-01-24 15:33:00,21.0,8.0,-100.00,NE,50,2.0,9.0,55,0.55,,,-99.99,,2013-01-24 20:33:00,
2013-01-24 15:43:00,22.0,7.0,-100.00,NW,325,2.0,7.0,52,0.00,,,-99.99,,2013-01-24 20:43:00,
2013-01-24 15:52:00,21.0,6.0,-100.00,WNW,295,4.0,9.0,52,0.00,,,-99.99,,2013-01-24 20:52:00,
2013-01-24 16:03:00,21.0,7.0,-100.00,North,350,2.0,6.0,53,0.00,,,-99.99,,2013-01-24 21:03:00,
2013-01-24 16:12:00,20.0,6.0,-100.00,WSW,240,1.0,7.0,53,0.00,,,-99.99,,2013-01-24 21:12:00,
2013-01-24 16:22:00,21.0,5.0,-100.00,WSW,240,2.0,7.0,50,0.00,,,-99.99,,2013-01-24 21:22:00,
2013-01-24 16:33:00,21.0,5.0,-100.00,WSW,240,2.0,7.0,50,0.00,,,-99.99,,2013-01-24 21:33:00,
2013-01-24 16:43:00,21.0,5.0,-100.00,North,5,2.0,7.0,49,0.00,,,-99.99,,2013-01-24 21:43:00,
2013-01-24 16:52:00,21.0,5.0,-100.00,WNW,295,2.0,9.0,49,0.00,,,-99.99,,2013-01-24 21:52:00,
2013-01-24 17:03:00,21.0,5.0,-100.00,WNW,295,2.0,9.0,49,0.00,,,-99.99,,2013-01-24 22:03:00,
2013-01-24 17:12:00,21.0,5.0,-100.00,NNW,335,2.0,6.0,50,0.00,,,-99.99,,2013-01-24 22:12:00,
2013-01-24 17:22:00,20.0,5.0,-100.00,North,10,1.0,6.0,51,0.00,,,-99.99,,2013-01-24 22:22:00,
2013-01-24 17:33:00,20.0,5.0,-100.00,NNE,25,1.0,6.0,51,0.00,,,-99.99,,2013-01-24 22:33:00,
2013-01-24 17:42:00,20.0,5.0,-100.00,WNW,295,1.0,6.0,51,0.00,,,-99.99,,2013-01-24 22:42:00,
2013-01-24 17:52:00,20.0,5.0,-100.00,NNW,330,1.0,9.0,51,0.00,,,-99.99,,2013-01-24 22:52:00,
2013-01-24 18:03:00,20.0,5.0,-100.00,West,265,2.0,4.0,52,0.00,,,-99.99,,2013-01-24 23:03:00,
2013-01-24 18:12:00,20.0,5.0,-100.00,NW,320,2.0,6.0,52,0.00,,,-99.99,,2013-01-24 23:12:00,
2013-01-24 18:22:00,19.0,5.0,-100.00,NW,310,1.0,6.0,53,0.00,,,-99.99,,2013-01-24 23:22:00,
2013-01-24 18:32:00,17.0,6.0,-100.00,SW,230,1.0,4.0,62,0.00,,,-99.99,,2013-01-24 23:32:00,
2013-01-24 18:42:00,17.0,6.0,-100.00,WSW,250,3.0,6.0,61,0.00,,,-99.99,,2013-01-24 23:42:00,
2013-01-24 18:52:00,16.0,6.0,-100.00,SW,235,1.0,6.0,63,0.00,,,-99.99,,2013-01-24 23:52:00,
2013-01-24 19:02:00,16.0,6.0,-100.00,SW,235,2.0,9.0,64,0.00,,,-99.99,,2013-01-25 00:02:00,
2013-01-24 19:12:00,15.0,6.0,-100.00,SSW,195,0.0,7.0,66,0.00,,,-99.99,,2013-01-25 00:12:00,
2013-01-24 19:22:00,15.0,6.0,-100.00,South,190,1.0,6.0,68,0.00,,,-99.99,,2013-01-25 00:22:00,
2013-01-24 19:32:00,15.0,6.0,-100.00,SW,235,2.0,7.0,67,0.00,,,-99.99,,2013-01-25 00:32:00,
2013-01-24 19:42:00,15.0,6.0,-100.00,WNW,285,1.0,7.0,67,0.00,,,-99.99,,2013-01-25 00:42:00,
2013-01-24 19:52:00,15.0,6.0,-100.00,WSW,245,1.0,5.0,67,0.00,,,-99.99,,2013-01-25 00:52:00,
2013-01-24 20:02:00,15.0,6.0,-100.00,North,5,1.0,4.0,68,0.00,,,-99.99,,2013-01-25 01:02:00,
2013-01-24 20:12:00,15.0,6.0,-100.00,West,270,2.0,6.0,69,0.00,,,-99.99,,2013-01-25 01:12:00,
2013-01-24 20:22:00,13.0,5.0,-100.00,WNW,295,0.0,5.0,70,0.00,,,-99.99,,2013-01-25 01:22:00,
2013-01-24 20:32:00,13.0,5.0,-100.00,SSW,205,1.0,5.0,71,0.00,,,-99.99,,2013-01-25 01:32:00,
2013-01-24 20:42:00,14.0,6.0,-100.00,WNW,300,1.0,4.0,71,0.00,,,-99.99,,2013-01-25 01:42:00,
2013-01-24 20:52:00,13.0,6.0,-100.00,SW,230,1.0,6.0,71,0.00,,,-99.99,,2013-01-25 01:52:00,
2013-01-24 21:02:00,12.0,5.0,-100.00,NW,305,0.0,6.0,72,0.00,,,-99.99,,2013-01-25 02:02:00,
2013-01-24 21:11:00,13.0,6.0,-100.00,NE,35,1.0,6.0,71,0.00,,,-99.99,,2013-01-25 02:11:00,
2013-01-24 21:22:00,11.0,5.0,-100.00,WSW,255,1.0,5.0,74,0.00,,,-99.99,,2013-01-25 02:22:00,
2013-01-24 21:32:00,11.0,5.0,-100.00,WSW,245,1.0,3.0,75,0.00,,,-99.99,,2013-01-25 02:32:00,
2013-01-24 21:42:00,11.0,5.0,-100.00,SE,130,1.0,7.0,75,0.00,,,-99.99,,2013-01-25 02:42:00,
2013-01-24 21:52:00,12.0,6.0,-100.00,West,265,1.0,5.0,76,0.00,,,-99.99,,2013-01-25 02:52:00,
2013-01-24 22:02:00,12.0,6.0,-100.00,NE,55,1.0,4.0,76,0.00,,,-99.99,,2013-01-25 03:02:00,
2013-01-24 22:12:00,13.0,6.0,-100.00,NE,35,1.0,6.0,75,0.00,,,-99.99,,2013-01-25 03:12:00,
2013-01-24 22:22:00,13.0,6.0,-100.00,NE,35,1.0,6.0,75,0.00,,,-99.99,,2013-01-25 03:22:00,
2013-01-24 22:33:00,12.0,6.0,-100.00,SE,130,0.0,3.0,75,0.00,,,-99.99,,2013-01-25 03:33:00,
2013-01-24 22:42:00,13.0,7.0,-100.00,WNW,290,1.0,7.0,76,0.00,,,-99.99,,2013-01-25 03:42:00,
2013-01-24 22:52:00,13.0,7.0,-100.00,WSW,250,1.0,4.0,76,0.00,,,-99.99,,2013-01-25 03:52:00,
2013-01-24 23:02:00,13.0,6.0,-100.00,NW,305,0.0,4.0,75,0.00,,,-99.99,,2013-01-25 04:02:00,
2013-01-24 23:12:00,13.0,6.0,-100.00,NW,305,0.0,4.0,75,0.00,,,-99.99,,2013-01-25 04:12:00,
2013-01-24 23:22:00,14.0,5.0,-100.00,ENE,60,1.0,4.0,67,0.00,,,-99.99,,2013-01-25 04:22:00,
2013-01-24 23:32:00,14.0,5.0,-100.00,WNW,300,1.0,5.0,66,0.00,,,-99.99,,2013-01-25 04:32:00,
2013-01-24 23:42:00,15.0,5.0,-100.00,ENE,70,1.0,3.0,62,0.00,,,-99.99,,2013-01-25 04:42:00,
2013-01-24 23:52:00,15.0,5.0,-100.00,ENE,70,1.0,3.0,63,0.00,,,-99.99,,2013-01-25 04:52:00,